Location: ?p Dangia
(12.0167°N, 108.4333°E)
Time: 11:14:11
(UTC+00:00)

Cosmos 2082 Rocket - Pass Details

Date: 07 June 2020
Orbit: 832 x 854 km, 71.0° (Epoch: 14 July)

Event Time Altitude Azimuth Distance (km) Brightness Sun altitude
Rises 11:48:10 0° 20° (NNE) 3,403 5.4 -9.4°
Reaches altitude 10° 11:53:53 10° 66° (ENE) 2,461 4.3 -10.7°
Maximum altitude 11:54:09 10° 68° (ENE) 2,458 4.2 -10.7°
Drops below altitude 10° 11:54:27 10° 71° (ENE) 2,461 4.2 -10.8°
Enters shadow 11:55:45 - 85° (E) 2,536 4.2 -11.1°
